User: anonymous   Login
Location: Muenchen
(48.1800°N, 11.5800°E)
Time: 05:19:06
(UTC+01:00)
Language:

Cosmos 2233 Rocket - Orbit

View from above orbital plane
View from above orbital plane
View from above satellite
View from above satellite

Ground track
Ground track

The orbit data is extracted from the following two-line orbital elements,

1 22488U 93008B   15061.18720941  .00000106  00000-0  90812-4 0  9990
2 22488 082.9467 342.0227 0026597 055.1418 109.5335 13.77661727108872
Epoch (UTC): 02 March 2015 04:29:34
Eccentricity: 0.0026597
inclination: 82.9467°
perigee height: 952 km
apogee height: 992 km
right ascension of ascending node: 342.0227°
argument of perigee: 55.1418°
revolutions per day: 13.77661727
mean anomaly at epoch: 109.5335°
orbit number at epoch: 10887

The dashed part of the orbit path shows where the satellite is in the earth's shadow,  

DLR